Regional Weather Roundup
Issued by NWS

Home | Current Version | Previous Version | Graphics & Text | Print | Product List | Glossary On
Versions: 1 2 3 4 5 6 7 8 9 10 11 12 13 14 15 16 17 18 19 20 21 22 23 24 25 26 27 28 29 30 31 32 33 34 35 36 37 38 39 40 41 42 43 44 45 46 47 48 49 50
255
ASUS45 KBOI 301010
RWRID

IDAHO REGIONAL WEATHER ROUNDUP
NATIONAL WEATHER SERVICE BOISE ID
400 AM MDT FRI SEP 30 2016

NOTE: "FAIR" INDICATES FEW OR NO CLOUDS BELOW 12000 FEET
WITH NO SIGNIFICANT WEATHER AND/OR OBSTRUCTIONS TO VISIBILITY

IDZ012-014-301100-
SOUTHWEST IDAHO


CITY           SKY/WX    TMP DP  RH WIND       PRES   REMARKS
BOISE          CLEAR     69  41  36 SE12      30.00R
CALDWELL       CLEAR     64  45  49 SE10      30.00R
MOUNTAIN HOME  CLOUDY    68  47  47 E15       30.03R
$$

IDZ016-017-301100-
SOUTHCENTRAL IDAHO


CITY           SKY/WX    TMP DP  RH WIND       PRES   REMARKS
BURLEY         PTCLDY    55  49  80 E3        30.11F
JEROME         PTCLDY    58  48  69 NE12      30.12S
TWIN FALLS     MOCLDY    56  47  71 CALM      30.13R
$$

IDZ019>023-301100-
SOUTHEAST IDAHO


CITY           SKY/WX    TMP DP  RH WIND       PRES   REMARKS
IDAHO FALLS    CLEAR     48  46  93 NW5       30.20S
POCATELLO      CLEAR     48  45  89 NE6       30.17F
REXBURG        CLEAR     49  46  90 NE3       30.20F
$$

IDZ006-010-011-018-031-032-301100-
CENTRAL IDAHO MOUNTAINS


CITY           SKY/WX    TMP DP  RH WIND       PRES   REMARKS
MCCALL         CLEAR     54  40  59 CALM      30.08S
HAILEY         PTCLDY    52  45  76 NW8       30.22F
STANLEY          N/A     48  40  73 W3        30.26R
SALMON         CLOUDY    45  41  87 CALM      30.15S
CHALLIS        CLEAR     46  42  86 CALM      30.20S
$$

IDZ002-004-006-007-026-301100-
NORTHERN IDAHO


CITY           SKY/WX    TMP DP  RH WIND       PRES   REMARKS
LEWISTON       PTCLDY    60  51  72 SE5       29.94R
LOWELL           N/A     56  53  90 CALM      29.99F
COEUR D`ALENE  CLOUDY    59  53  80 NW8       29.99F
MULLAN PASS    MOCLDY    51  40  65 NW3       30.13S
$$




USA.gov is the U.S. government's official web portal to all federal, state and local government web resources and services.